This is the latest recevied weather packets stored in our database for station/object W9WRP. If no packets are shown the sender has not sent any weather packets the latest 10 day(s).
| Time | Temp. | Humidity | Pressure | Rain* | Wind** | Luminosity | Snow |
|---|---|---|---|---|---|---|---|
| 1787588455 | 33.33° C | 34% | 1018.4 hPa | 0 mm | - | 129 W/m² | - |
| 1787588154 | 33.33° C | 34% | 1018.5 hPa | 0 mm | - | 141 W/m² | - |
| 1787587850 | 33.33° C | 34% | 1018.5 hPa | 0 mm | - | 143 W/m² | - |
| 1787587549 | 33.33° C | 35% | 1018.3 hPa | 0 mm | - | 154 W/m² | - |
| 1787587244 | 33.33° C | 35% | 1018.2 hPa | 0 mm | - | 147 W/m² | - |
| 1787586943 | 32.78° C | 35% | 1018.3 hPa | 0 mm | - | 149 W/m² | - |
| 1787586638 | 32.78° C | 36% | 1018.3 hPa | 0 mm | - | 138 W/m² | - |
| 1787586333 | 32.78° C | 37% | 1018.4 hPa | 0 mm | - | 129 W/m² | - |
| 1787586024 | 32.22° C | 37% | 1018.4 hPa | 0 mm | - | 122 W/m² | - |
| 1787585719 | 32.22° C | 37% | 1018 hPa | 0 mm | - | 119 W/m² | - |
| 1787585414 | 32.78° C | 37% | 1018.2 hPa | 0 mm | - | 139 W/m² | - |
| 1787585108 | 32.22° C | 37% | 1018.1 hPa | 0 mm | - | 111 W/m² | - |
| 1787584798 | 32.22° C | 37% | 1018.3 hPa | 0 mm | - | 102 W/m² | - |
| 1787584495 | 31.67° C | 39% | 1018.3 hPa | 0 mm | - | 96 W/m² | - |
| 1787584190 | 31.67° C | 39% | 1018.3 hPa | 0 mm | - | 79 W/m² | - |
| 1787583885 | 31.11° C | 40% | 1018.2 hPa | 0 mm | - | 70 W/m² | - |
| 1787583579 | 30.56° C | 41% | 1018.2 hPa | 0 mm | - | 74 W/m² | - |
| 1787583278 | 30.56° C | 43% | 1018.3 hPa | 0 mm | - | 66 W/m² | - |
| 1787582973 | 30.56° C | 43% | 1017.9 hPa | 0 mm | - | 61 W/m² | - |
| 1787582668 | 30.56° C | 44% | 1018 hPa | 0 mm | - | 63 W/m² | - |
| 1787582364 | 30.56° C | 44% | 1017.8 hPa | 0 mm | - | 70 W/m² | - |
| 1787582063 | 30° C | 45% | 1018 hPa | 0 mm | - | 65 W/m² | - |
| 1787581758 | 30° C | 45% | 1018.3 hPa | 0 mm | - | 55 W/m² | - |
| 1787581453 | 30° C | 45% | 1018.2 hPa | 0 mm | - | 45 W/m² | - |
| 1787581148 | 30° C | 45% | 1018 hPa | 0 mm | - | 40 W/m² | - |
* Rain latest hour (hover to see other rain measurements)
** Current wind speed in m/s (hover to see current wind gust speed)